Weather History for Eastsound, WA

Change the Weather History Date:

Saturday, November 3, 2012

  Actual Average (KBLI) Record (KBLI)
Temperature  
Mean Temperature 53 °F 46 °F  
Max Temperature 55 °F 53 °F 67 °F (2010)
Min Temperature 51 °F 39 °F 22 °F (2002)
Degree Days  
Heating Degree Days 12 19  
Month to date heating degree days 57  
Cooling Degree Days 0 0  
Month to date cooling degree days 0  
Year to date cooling degree days 42  
Growing Degree Days 3 (Base 50)    
Moisture  
Dew Point 51 °F    
Average Humidity 88    
Maximum Humidity 100    
Minimum Humidity 77    
Precipitation  
Precipitation 0.00 in 0.18 in 2.83 in (1989)
Month to date precipitation 0.55  
Year to date precipitation 26.36  
Sea Level Pressure  
Sea Level Pressure 29.98 in    
Wind  
Wind Speed 10 mph (South)    
Max Wind Speed 16 mph    
Max Gust Speed 25 mph    
Visibility 10 miles    
Events Rain    
T = Trace of Precipitation, MM = Missing Value Source: NWS Daily Summary

Daily Weather History Graph

Daily Weather History Graph

Search for Another Location

Airport:

Trip Planner

Search our weather history database for the weather conditions in past years. The results will help you decide how hot, cold, wet, or windy it might be!

Date:

Astronomy

Nov. 03, 2012 Rise Set
Actual Time 8:02 AM PDT 5:47 PM PDT
Civil Twilight 7:29 AM PDT 6:20 PM PDT
Nautical Twilight 6:51 AM PDT 6:57 PM PDT
Astronomical Twilight 6:15 AM PDT 7:34 PM PDT
Moon 9:25 PM PDT (11/3) 12:18 PM PDT (11/3)
Length of Visible Light 10h 51m
Length of Day
9h 45m
Waning Gibbous, 79% of the Moon is Illuminated
Nov 3
Waning Gibbous
Nov 6
Last Quarter
Nov 13
New
Nov 20
First Quarter
Nov 28
Full

Hourly Weather History & Observations

Time (PDT) Temp. Dew Point Humidity Pressure Visibility Wind Dir Wind Speed Gust Speed Precip Events Conditions
12:15 AM 55.4 °F 50.0 °F 82% 29.89 in 10.0 mi South 11.5 mph 19.6 mph N/A   Overcast
12:35 AM 55.4 °F 50.0 °F 82% 29.89 in 10.0 mi South 11.5 mph 20.7 mph N/A   Mostly Cloudy
12:55 AM 55.4 °F 48.2 °F 77% 29.88 in 10.0 mi South 16.1 mph 21.9 mph N/A   Overcast
1:15 AM 55.4 °F 50.0 °F 82% 29.89 in 10.0 mi South 15.0 mph 20.7 mph N/A Rain Light Rain
1:35 AM 55.4 °F 50.0 °F 82% 29.90 in 10.0 mi South 12.7 mph 25.3 mph N/A Rain Light Rain
1:55 AM 53.6 °F 50.0 °F 88% 29.89 in 9.0 mi South 11.5 mph 20.7 mph N/A Rain Light Rain
2:15 AM 55.4 °F 50.0 °F 82% 29.89 in 10.0 mi South 10.4 mph 20.7 mph N/A Rain Light Rain
2:35 AM 55.4 °F 50.0 °F 82% 29.89 in 10.0 mi South 12.7 mph 18.4 mph N/A   Mostly Cloudy
2:55 AM 55.4 °F 50.0 °F 82% 29.89 in 10.0 mi South 15.0 mph 24.2 mph N/A   Overcast
3:15 AM 55.4 °F 50.0 °F 82% 29.90 in 10.0 mi South 11.5 mph 25.3 mph N/A   Overcast
3:35 AM 55.4 °F 50.0 °F 82% 29.90 in 10.0 mi South 11.5 mph 23.0 mph N/A   Overcast
3:55 AM 55.4 °F 50.0 °F 82% 29.90 in 10.0 mi South 12.7 mph 25.3 mph N/A   Overcast
4:15 AM 55.4 °F 50.0 °F 82% 29.90 in 10.0 mi South 15.0 mph 21.9 mph N/A   Overcast
4:35 AM 55.4 °F 50.0 °F 82% 29.90 in 10.0 mi South 13.8 mph 21.9 mph N/A   Overcast
4:55 AM 55.4 °F 50.0 °F 82% 29.91 in 10.0 mi South 13.8 mph 24.2 mph N/A   Mostly Cloudy
5:15 AM 55.4 °F 50.0 °F 82% 29.91 in 10.0 mi South 11.5 mph 24.2 mph N/A   Overcast
5:35 AM 55.4 °F 50.0 °F 82% 29.91 in 10.0 mi South 10.4 mph 23.0 mph N/A   Overcast
5:55 AM 55.4 °F 50.0 °F 82% 29.92 in 10.0 mi South 11.5 mph 18.4 mph N/A   Overcast
6:15 AM 55.4 °F 50.0 °F 82% 29.92 in 10.0 mi South 10.4 mph 19.6 mph N/A Rain Light Rain
6:35 AM 53.6 °F 50.0 °F 88% 29.93 in 10.0 mi South 13.8 mph 20.7 mph N/A   Overcast
6:55 AM 53.6 °F 50.0 °F 88% 29.94 in 10.0 mi South 10.4 mph - N/A   Overcast
7:15 AM 53.6 °F 50.0 °F 88% 29.94 in 10.0 mi South 11.5 mph 16.1 mph N/A   Overcast
7:35 AM 53.6 °F 50.0 °F 88% 29.94 in 10.0 mi South 9.2 mph - N/A   Overcast
7:55 AM 53.6 °F 50.0 °F 88% 29.95 in 10.0 mi SSE 4.6 mph - N/A   Overcast
8:35 AM 55.4 °F 50.0 °F 82% 29.95 in 10.0 mi South 8.1 mph - N/A   Overcast
8:55 AM 55.4 °F 50.0 °F 82% 29.95 in 10.0 mi South 12.7 mph 18.4 mph N/A   Mostly Cloudy
9:15 AM 55.4 °F 50.0 °F 82% 29.95 in 10.0 mi South 6.9 mph 16.1 mph N/A   Mostly Cloudy
9:35 AM 55.4 °F 50.0 °F 82% 29.94 in 10.0 mi South 8.1 mph - N/A   Partly Cloudy
9:55 AM 55.4 °F 50.0 °F 82% 29.95 in 10.0 mi South 9.2 mph 18.4 mph N/A   Scattered Clouds
10:15 AM 55.4 °F 50.0 °F 82% 29.96 in 10.0 mi South 10.4 mph 18.4 mph N/A   Mostly Cloudy
10:35 AM 55.4 °F 51.8 °F 88% 29.96 in 10.0 mi South 10.4 mph 17.3 mph N/A   Mostly Cloudy
10:55 AM 55.4 °F 51.8 °F 88% 29.96 in 10.0 mi South 8.1 mph - N/A   Mostly Cloudy
11:15 AM 55.4 °F 51.8 °F 88% 29.95 in 10.0 mi South 8.1 mph - N/A   Overcast
11:35 AM 55.4 °F 51.8 °F 88% 29.96 in 10.0 mi South 8.1 mph - N/A   Mostly Cloudy
11:55 AM 55.4 °F 51.8 °F 88% 29.97 in 10.0 mi South 5.8 mph - N/A   Overcast
12:15 PM 55.4 °F 51.8 °F 88% 29.96 in 10.0 mi South 6.9 mph - N/A   Overcast
12:35 PM 55.4 °F 51.8 °F 88% 29.98 in 9.0 mi SSW 10.4 mph - N/A Rain Light Rain
12:55 PM 55.4 °F 53.6 °F 94% 29.98 in 4.0 mi South 6.9 mph - N/A Rain Light Rain
1:15 PM 53.6 °F 53.6 °F 100% 29.98 in 3.0 mi South 6.9 mph - N/A Rain Rain
1:35 PM 53.6 °F 53.6 °F 100% 29.98 in 3.0 mi South 5.8 mph - N/A Rain Light Rain
1:55 PM 53.6 °F 53.6 °F 100% 29.98 in 5.0 mi South 6.9 mph - N/A Rain Light Rain
2:15 PM 53.6 °F 53.6 °F 100% 29.98 in 9.0 mi South 5.8 mph - N/A Rain Light Rain
2:35 PM 55.4 °F 53.6 °F 94% 29.98 in 10.0 mi South 6.9 mph - N/A   Mostly Cloudy
2:55 PM 55.4 °F 53.6 °F 94% 29.98 in 10.0 mi SSW 6.9 mph - N/A Rain Light Rain
3:15 PM 55.4 °F 53.6 °F 94% 29.97 in 10.0 mi South 4.6 mph - N/A   Scattered Clouds
3:35 PM 55.4 °F 53.6 °F 94% 29.99 in 10.0 mi South 6.9 mph - N/A   Mostly Cloudy
3:55 PM 55.4 °F 53.6 °F 94% 29.98 in 10.0 mi South 8.1 mph - N/A   Mostly Cloudy
4:15 PM 55.4 °F 53.6 °F 94% 30.00 in 10.0 mi South 8.1 mph - N/A   Mostly Cloudy
4:35 PM 55.4 °F 53.6 °F 94% 30.01 in 8.0 mi South 3.5 mph - N/A Rain Light Rain
4:55 PM 55.4 °F 53.6 °F 94% 30.02 in 10.0 mi South 3.5 mph - N/A   Mostly Cloudy
5:15 PM 55.4 °F 53.6 °F 94% 30.02 in 10.0 mi Calm Calm - N/A   Mostly Cloudy
5:35 PM 55.4 °F 53.6 °F 94% 30.02 in 10.0 mi South 5.8 mph - N/A   Mostly Cloudy
5:55 PM 55.4 °F 53.6 °F 94% 30.03 in 10.0 mi SSW 11.5 mph - N/A   Mostly Cloudy
6:15 PM 55.4 °F 53.6 °F 94% 30.03 in 8.0 mi South 9.2 mph - N/A   Overcast
6:35 PM 53.6 °F 53.6 °F 100% 30.04 in 10.0 mi SSW 11.5 mph - N/A   Mostly Cloudy
6:55 PM 53.6 °F 53.6 °F 100% 30.05 in 10.0 mi SSW 12.7 mph - N/A   Partly Cloudy
7:35 PM 53.6 °F 51.8 °F 94% 30.06 in 10.0 mi South 9.2 mph - N/A   Clear
7:55 PM 53.6 °F 51.8 °F 94% 30.07 in 10.0 mi South 10.4 mph - N/A   Clear
8:15 PM 53.6 °F 50.0 °F 88% 30.07 in 10.0 mi SSW 10.4 mph - N/A   Clear
8:35 PM 53.6 °F 50.0 °F 88% 30.08 in 10.0 mi SSW 8.1 mph - N/A   Clear
8:55 PM 53.6 °F 50.0 °F 88% 30.09 in 10.0 mi South 4.6 mph - N/A   Clear
9:15 PM 53.6 °F 50.0 °F 88% 30.11 in 10.0 mi South 6.9 mph - N/A   Clear
9:35 PM 53.6 °F 50.0 °F 88% 30.12 in 10.0 mi South 4.6 mph - N/A   Clear
9:55 PM 53.6 °F 50.0 °F 88% 30.12 in 10.0 mi South 3.5 mph - N/A   Clear
10:15 PM 53.6 °F 50.0 °F 88% 30.13 in 10.0 mi North - - N/A   Clear
10:35 PM 53.6 °F 50.0 °F 88% 30.13 in 10.0 mi South 5.8 mph - N/A   Clear
10:55 PM 51.8 °F 50.0 °F 94% 30.13 in 10.0 mi South 8.1 mph - N/A   Clear
11:15 PM 53.6 °F 50.0 °F 88% 30.14 in 10.0 mi South 6.9 mph - N/A   Clear
11:35 PM 53.6 °F 50.0 °F 88% 30.13 in 10.0 mi South 6.9 mph - N/A   Clear
11:55 PM 53.6 °F 50.0 °F 88% 30.14 in 10.0 mi South 6.9 mph - N/A   Clear